CAPE
1619 2038 2229 3011 3618 3416 3726 3686 3570 3728 3647 3736 3909 3650 4165 4134 4005 3888 3771 3407 3578 3848 3491 3175 2185 1886 1107 1343 1591 1424 1243 1590 1591 969 1281 2223 2343 1826 1338 1282 1314 1552 1172
1579 1698 1723 1944 2265 3069 3115 3549 3548 3590 3172 3596 3701 3669 3751 3642 3955 3980 3879 3016 3348 3531 3396 3159 1907 2070 2260 2859 1598 2310 1763 1581 1040 1976 1782 1281 2208 1554 1519 1858 1193 906 1366
1308 1391 1393 1432 1596 1890 2292 3012 2967 3248 3451 3285 3210 3734 3567 3640 3505 3523 3678 3531 3263 3318 3214 3040 3147 2446 3107 2484 2422 1815 1741 2103 1730 1130 1208 962 875 923 1381 1392 1179 1769 949
1306 1413 1366 1389 1554 1608 2022 2513 2443 2925 3037 3208 3549 3223 3216 3268 3473 3293 3164 3402 3575 3018 3087 2916 3065 2835 3066 3346 2649 2722 2265 1514 1605 1551 1071 645 741 1233 951 834 1190 991 592
1343 1336 1447 1660 1658 1559 1854 2115 2530 2849 3103 2929 3199 3009 2986 3094 2992 3278 3254 3004 3432 3181 3356 2823 2908 2687 2355 2680 2308 2449 2763 1824 1546 1378 900 563 1234 826 924 737 580 501 987
1221 1324 1565 1630 1514 1069 1031 1691 2945 2549 2775 2965 3027 3142 3049 3090 2267 1970 2246 2976 2812 2841 3285 2983 3140 2020 1403 1000 1120 672 1624 1782 2059 1030 810 896 1877 1334 898 598 295 726 253
1200 1330 1324 1436 1324 958 665 924 1215 1739 1299 2024 2497 2328 2070 2162 406 204 187 2696 2929 2845 3137 3297 2575 2780 1584 1612 568 431 564 673 994 1670 2038 2111 2070 1848 1802 1819 1542 881 576
1145 1007 1112 1131 1182 1187 746 650 767 906 634 397 260 349 279 461 94 0 47 1490 2614 2612 2566 2825 3022 3107 2261 1693 1876 1291 1539 1015 1146 847 1899 2092 2038 2346 2213 1690 1596 1210 931
653 625 560 890 994 881 919 1042 868 910 781 380 234 262 472 449 110 17 0 230 740 1961 2366 2465 2649 2855 1332 673 2122 2253 1325 898 643 546 519 13 73 182 467 830 912 647 489
428 572 779 466 824 781 787 956 1117 1122 964 1434 1336 914 490 720 206 0 0 625 495 895 1922 2452 1256 1599 1131 141 861 1429 1441 1181 1148 659 181 97 35 298 170 821 708 359 433
313 473 520 610 656 589 996 855 1099 1032 1058 1117 901 1011 740 332 1 2 2 317 903 1386 1485 2426 2004 35 133 207 130 625 575 506 701 324 661 483 388 470 373 520 931 865 890
702 345 381 471 595 564 1063 1017 1081 948 416 580 525 202 6 21 0 0 1 0 0 294 971 536 344 20 2 1 1 1 1 1 142 213 314 764 1781 648 307 459 1116 1671 1780
571 492 407 446 469 740 642 794 1181 918 468 103 10 7 6 6 10 0 1 1 1 8 214 163 2 1 1 1 1 1 1 3 12 83 112 168 171 29 126 311 503 1018 1230
380 482 349 456 263 866 605 137 734 1062 879 141 29 2 0 0 2 7 7 6 2 1 0 0 1 1 1 0 1 1 0 2 100 191 112 61 42 26 1 7 0 96 247
344 145 225 147 266 294 149 17 4 0 0 0 90 45 0 0 0 0 0 2 1 1 1 3 4 3 3 11 21 9 41 124 119 148 270 227 116 58 42 6 7 14 53
261 76 58 44 262 53 129 4 0 0 1 2 1 0 0 0 0 0 0 0 0 0 0 1 6 3 1 0 0 0 0 1 2 30 71 101 47 9 3 65 172 303 366
632 159 40 1 45 49 15 27 20 0 1 1 2 1 0 0 0 0 1 0 0 0 2 67 32 13 13 19 16 25 23 28 85 17 17 38 174 187 326 202 178 183 236
134 4 6 63 39 29 46 20 16 42 24 6 0 0 0 1 0 1 0 0 1 0 3 4 7 7 5 2 2 3 7 7 26 24 27 56 35 49 119 156 141 166 161
105 104 56 91 85 28 83 6 13 33 78 152 6 0 0 0 1 1 0 0 33 20 9 2 9 13 7 4 2 3 4 7 12 22 13 26 29 27 25 28 21 0 1
72 5 8 119 101 61 68 100 75 59 77 69 94 78 10 0 22 36 45 28 46 46 34 8 10 9 9 8 5 4 2 0 1 1 2 1 1 3 8 9 12 20 20
67 116 51 36 87 59 47 34 136 88 206 123 369 14 0 61 29 23 42 38 34 32 28 7 8 3 0 1 4 4 3 5 5 9 11 2 4 12 0 4 5 4 9
79 27 78 40 98 46 55 48 38 89 130 101 215 23 0 24 59 61 52 38 32 9 25 18 37 28 28 44 26 25 22 30 21 22 24 28 43 39 25 37 26 21 10
43 22 46 65 62 1 5 26 24 33 28 14 21 112 37 6 7 49 44 39 54 51 33 34 46 51 52 40 37 22 39 55 23 27 23 33 21 6 51 32 30 51 40
19 31 34 79 58 60 73 35 19 0 0 0 2 1 0 10 14 41 44 35 50 43 51 57 52 43 64 45 42 46 37 18 1 1 9 13 17 21 32 40 32 31 47
32 34 43 68 68 55 19 34 44 59 55 16 6 0 5 3 6 13 99 22 38 40 60 55 44 54 35 37 42 4 0 0 0 0 0 0 2 20 29 60 82 71 70
75 34 8 23 50 61 54 40 36 42 54 64 59 38 20 10 7 1 1 36 37 46 95 38 35 45 44 36 27 0 0 0 0 0 0 0 0 6 20 26 92 57 72
CIN
-37 -5 -14 -0 -0 -0 -0 -0 -0 -0 -0 -0 -0 -1 -0 -0 -0 -0 -0 -0 -0 -0 -0 -0 -3 -2 -29 -9 -2 -0 -0 -0 -0 -7 -19 -41 -5 -0 -0 -0 -0 -0 -14
-19 -21 -23 -8 -0 -0 -0 -0 -0 -0 -2 -0 -0 -0 -0 -0 -0 -0 -0 -0 -0 -0 -0 -0 -4 -0 -1 -0 -0 -0 -0 -0 -0 -0 -0 -2 -3 -1 -0 -0 -0 -0 -0
-0 -8 -20 -27 -11 -0 -0 -0 -0 -0 -0 -0 -0 -0 -0 -0 -0 -0 -0 -0 -0 -0 -0 -0 -0 -1 -0 -0 -0 -0 -0 -0 -0 -0 -0 -0 -0 -0 -0 -0 -4 -0 -0
-0 -1 -6 -25 -17 -8 -0 -0 -0 -0 -0 -0 -0 -0 -0 -0 -0 -0 -0 -0 -0 -0 -0 -0 -0 -0 -0 -0 -0 -0 -0 -0 -0 -0 -0 -0 -0 -0 -0 -0 -3 -7 -0
-2 -0 -0 -0 -2 -13 -0 -0 -0 -0 -0 -0 -0 -0 -0 -0 -0 -0 -0 -0 -0 -0 -0 -0 -0 -1 -1 -1 -0 -1 -0 -0 -0 -0 -0 -0 -3 -4 -0 -0 -0 -0 -13
-0 -0 -0 -0 -0 -34 -62 -3 -0 -0 -0 -0 -0 -0 -0 -0 -1 -10 -16 -0 -2 -0 -0 -0 -0 -11 -56 -44 -22 -41 -10 -0 -0 -0 -0 -0 -0 -0 -0 -4 -9 -7 -0
-0 -0 -0 -0 -0 -6 -66 -21 -7 -0 -29 -9 -0 -1 -0 -2 -331 -487 -455 -3 -0 -0 -0 -0 -0 -0 -38 -7 -116 -104 -76 -48 -10 -13 -0 -0 -0 -0 -0 -0 -0 -0 -0
-0 -0 -0 -0 -0 -0 -21 -13 -11 -10 -91 -217 -282 -240 -283 -211 -449 -0 -200 -28 -0 -0 -0 -0 -0 -0 -3 -5 -1 -25 -0 -8 -5 -2 -0 -0 -1 -0 -0 -0 -0 -0 -2
-0 -0 -11 -0 -0 -0 -0 -0 -2 -1 -2 -138 -227 -194 -91 -127 -338 -417 -0 -295 -115 -0 -0 -0 -0 -0 -17 -52 -0 -0 -6 -17 -54 -82 -26 -93 -119 -86 -82 -0 -0 -2 -7
-0 -2 -0 -0 -1 -0 -4 -0 -4 -1 -2 -1 -0 -0 -33 -15 -213 -0 -0 -78 -122 -75 -0 -0 -50 -20 -37 -206 -53 -13 -4 -18 -21 -16 -95 -92 -160 -49 -103 -23 -0 -1 -8
-21 -5 -0 -0 -0 -0 -3 -0 -0 -0 -0 -1 -2 -1 -0 -16 -0 -0 -0 -141 -43 -9 -0 -0 -0 -289 -230 -142 -166 -19 -38 -45 -28 -24 -6 -31 -17 -6 -12 -30 -11 -0 -3
-1 -0 -0 -0 -0 -0 -0 -0 -0 -1 -2 -0 -0 -25 -0 -43 -0 -0 -0 -0 -0 -162 -11 -36 -82 -289 -0 -0 -0 -0 -0 -0 -21 -10 -11 -9 -0 -16 -24 -17 -10 -0 -0
-3 -0 -0 -3 -0 -0 -0 -0 -0 -0 -0 -2 -5 -0 -0 -0 -94 -0 -0 -0 -0 -176 -88 -108 -0 -0 -0 -0 -0 -0 -0 -0 -41 -13 -18 -34 -54 -92 -45 -8 -8 -2 -0
-6 -4 -0 -0 -13 -2 -22 -1 -9 -3 -0 -5 -45 -36 -13 -0 -0 -0 -4 -0 -0 -0 -0 -0 -0 -0 -0 -0 -0 -0 -0 -1 -0 -0 -22 -55 -76 -88 -72 -11 -0 -15 -4
-3 -2 -0 -0 -7 -2 -29 -37 -49 -0 -0 -0 -50 -34 -0 -0 -0 -0 -0 -0 -0 -0 -0 -0 -0 -0 -0 -0 -6 -2 -30 -2 -6 -0 -2 -1 -20 -31 -45 -29 -81 -82 -47
-1 -0 -9 -9 -1 -13 -13 -52 -0 -0 -0 -0 -0 -0 -0 -0 -0 -0 -0 -0 -0 -0 -0 -0 -6 -0 -0 -0 -0 -0 -0 -0 -0 -7 -1 -1 -1 -25 -34 -24 -10 -1 -0
-0 -0 -11 -0 -1 -25 -0 -1 -9 -0 -0 -0 -0 -0 -0 -0 -0 -0 -0 -0 -0 -0 -28 -2 -0 -0 -0 -0 -0 -0 -0 -2 -17 -1 -1 -8 -4 -0 -0 -2 -1 -2 -0
-0 -29 -58 -6 -0 -0 -1 -0 -0 -4 -11 -6 -0 -0 -0 -0 -0 -0 -0 -0 -0 -0 -0 -0 -0 -0 -0 -1 -3 -5 -3 -2 -0 -1 -0 -0 -0 -1 -0 -0 -0 -0 -0
-0 -0 -1 -0 -13 -9 -13 -0 -0 -1 -2 -5 -34 -0 -0 -0 -0 -0 -0 -0 -0 -0 -0 -0 -0 -0 -0 -1 -1 -1 -0 -0 -0 -0 -0 -0 -0 -0 -0 -0 -0 -0 -1
-0 -3 -7 -2 -3 -1 -0 -0 -0 -0 -0 -1 -2 -8 -56 -0 -13 -24 -4 -0 -0 -0 -0 -0 -0 -0 -0 -0 -0 -0 -0 -0 -0 -0 -0 -0 -0 -0 -0 -0 -0 -0 -0
-0 -2 -3 -6 -1 -0 -0 -0 -18 -1 -15 -13 -29 -45 -0 -0 -29 -23 -2 -0 -0 -0 -0 -0 -0 -0 -0 -0 -0 -0 -0 -0 -0 -0 -0 -0 -0 -0 -0 -0 -0 -0 -0
-0 -0 -1 -0 -2 -0 -0 -0 -0 -0 -18 -26 -20 -73 -0 -7 -3 -17 -16 -4 -0 -0 -0 -0 -0 -0 -0 -0 -0 -0 -0 -0 -0 -0 -0 -0 -1 -0 -0 -1 -1 -2 -0
-0 -0 -0 -0 -1 -7 -0 -0 -0 -0 -0 -0 -1 -4 -9 -0 -0 -0 -1 -2 -8 -2 -1 -0 -0 -0 -0 -1 -0 -0 -1 -1 -0 -0 -0 -0 -1 -1 -3 -2 -5 -3 -3
-0 -0 -0 -0 -0 -0 -0 -0 -0 -0 -0 -0 -0 -0 -0 -0 -0 -0 -1 -8 -15 -0 -1 -0 -0 -0 -2 -2 -0 -0 -0 -1 -0 -0 -1 -0 -1 -5 -1 -3 -1 -5 -5
-0 -0 -0 -0 -0 -0 -0 -0 -0 -0 -0 -0 -0 -0 -1 -0 -0 -0 -18 -8 -1 -1 -4 -24 -18 -6 -3 -0 -0 -60 -0 -0 -0 -0 -0 -0 -0 -0 -0 -3 -1 -1 -6
-0 -0 -0 -0 -0 -0 -0 -0 -0 -0 -0 -1 -0 -0 -0 -1 -0 -0 -1 -0 -10 -31 -25 -13 -5 -18 -19 -14 -3 -0 -0 -0 -0 -0 -0 -0 -0 -0 -0 -3 -4 -7 -1
Wind_Speed
9 8 8 10 10 14 14 16 17 15 17 18 15 15 18 18 17 17 16 15 16 15 14 12 10 10 10 9 9 10 11 11 11 10 6 3 6 6 6 5 7 7 2
8 8 10 11 11 11 12 14 15 16 16 16 16 16 16 16 17 18 18 16 17 15 15 13 13 12 14 11 10 11 12 11 11 11 9 6 7 5 4 5 6 4 4
9 9 10 10 13 12 13 12 14 14 15 17 18 16 18 16 17 17 16 17 16 16 14 14 15 13 13 11 12 11 11 9 9 10 8 8 6 4 5 6 6 6 5
11 8 12 11 12 12 13 13 14 14 14 16 16 18 17 16 15 16 17 17 16 15 13 13 14 14 13 12 11 12 7 8 10 6 10 9 7 5 7 5 5 7 6
8 10 11 10 10 11 14 13 14 14 15 16 16 17 17 15 14 16 16 17 15 14 14 14 14 15 17 14 10 12 8 9 8 9 10 9 5 7 8 6 6 5 5
12 9 11 8 8 7 10 13 12 14 12 13 15 14 15 11 12 15 16 14 16 15 14 14 14 15 14 11 11 3 6 11 11 8 9 9 6 6 8 6 7 4 8
11 10 10 9 10 8 5 7 6 5 3 6 10 6 9 9 9 5 3 13 13 13 14 12 14 12 12 14 12 7 7 8 10 7 11 9 7 9 7 8 6 6 6
10 8 8 9 10 8 7 5 5 5 5 4 3 2 3 2 2 0 1 6 12 13 12 13 13 13 14 15 13 15 13 10 11 10 10 10 8 6 8 7 5 5 5
7 6 6 7 9 6 5 4 6 6 7 8 6 5 4 6 12 10 5 3 7 13 13 12 12 14 12 15 13 13 12 11 13 19 16 5 1 2 3 7 8 6 8
7 8 8 5 6 6 5 7 2 6 9 8 10 12 11 10 10 11 11 8 12 10 12 14 14 13 8 11 10 9 9 6 4 5 8 8 7 7 5 5 7 7 8
3 6 7 7 9 5 3 3 6 6 5 4 4 4 5 5 6 4 8 10 7 7 8 8 6 5 10 13 12 8 8 3 5 4 8 8 9 9 7 9 10 10 7
9 4 4 5 6 7 4 4 4 4 3 5 4 4 3 2 6 5 7 10 1 2 4 3 4 9 5 5 5 7 6 2 5 3 4 6 7 6 5 5 6 8 6
5 5 5 4 4 7 6 1 3 5 5 3 3 3 1 1 4 6 7 5 7 0 4 2 12 8 7 3 5 4 5 3 1 3 7 7 6 2 5 4 5 4 5
5 6 4 4 5 3 7 5 4 3 3 5 4 3 3 3 4 4 5 6 8 6 8 5 7 8 4 5 4 2 2 3 4 5 5 3 2 1 2 3 2 2 4
8 4 7 6 2 1 5 5 6 8 5 6 5 4 3 4 4 3 4 4 5 4 5 4 4 3 4 4 5 5 5 5 7 7 4 3 2 1 2 2 2 2 4
11 8 4 6 4 2 3 5 11 9 8 8 8 8 7 10 4 4 5 6 6 4 4 4 4 3 4 3 3 2 2 3 5 5 4 5 5 5 5 5 6 6 6
9 7 6 5 8 3 4 5 8 3 7 9 10 11 12 8 3 4 7 9 5 4 7 5 6 3 2 2 3 2 3 1 1 3 5 5 6 7 7 6 6 5 4
8 5 6 7 5 6 4 5 7 9 9 7 1 0 5 2 2 6 6 7 5 2 3 4 6 2 1 2 2 2 1 0 3 1 2 0 3 4 3 3 4 5 5
8 3 3 6 2 4 4 4 6 2 3 9 8 4 5 5 6 8 4 6 2 4 6 4 4 5 4 4 4 3 3 2 1 0 1 2 1 2 2 2 3 4 4
7 4 3 8 5 9 5 6 5 6 5 5 8 9 9 6 7 6 6 1 2 6 6 5 5 5 4 5 5 6 5 4 3 3 2 2 1 2 4 3 4 5 5
5 9 4 6 8 4 3 6 4 5 6 6 5 5 7 6 4 2 2 5 2 4 5 6 7 6 5 4 3 2 3 5 1 2 2 4 3 3 2 3 3 2 4
5 6 7 7 1 2 4 3 5 3 6 5 5 5 7 6 6 7 4 4 5 3 3 2 4 6 5 3 2 3 5 3 2 3 2 2 5 5 2 4 1 1 1
6 5 7 4 1 4 6 5 2 3 4 4 3 9 7 7 8 5 5 5 3 1 3 2 6 5 6 5 4 2 4 2 1 3 6 6 1 6 3 3 6 2 3
9 4 8 6 5 4 3 4 2 2 7 4 3 2 4 3 5 4 7 7 6 6 4 6 5 7 5 2 3 6 5 4 5 5 6 6 3 2 6 3 4 5 1
8 2 7 6 5 5 5 5 5 5 6 5 4 3 1 2 3 4 8 4 3 7 7 5 3 4 4 7 7 8 9 9 4 5 5 7 9 6 7 1 4 6 6
6 3 5 6 6 5 6 5 5 5 6 6 4 5 4 3 2 2 3 4 6 3 2 3 6 7 6 6 9 9 9 8 4 0 5 7 8 8 8 4 4 4 6
Wind_Direction
287 279 271 281 262 243 237 233 232 232 238 238 220 221 202 208 211 216 222 230 215 220 228 228 214 223 240 211 220 229 220 219 232 242 243 171 203 228 266 262 268 275 228
277 280 272 263 262 263 256 250 241 233 230 234 230 223 223 214 215 212 214 222 230 222 221 224 224 229 226 236 236 229 218 225 233 238 256 239 189 249 260 254 266 263 204
278 288 283 284 284 265 257 257 251 238 234 232 230 224 224 215 222 221 218 218 229 228 221 224 228 222 223 233 223 225 224 224 222 248 251 228 238 210 231 244 236 238 246
276 277 282 286 285 282 272 241 248 236 232 227 232 226 221 222 222 222 219 217 220 223 226 220 230 223 225 226 235 237 245 238 218 230 246 242 220 201 240 242 212 205 221
286 284 282 281 282 294 287 270 247 240 233 231 226 229 231 223 216 220 224 224 213 218 223 221 227 225 220 217 220 225 211 241 241 221 239 243 195 197 211 222 227 261 187
283 276 283 280 269 282 298 293 264 246 235 242 245 228 225 230 227 207 215 226 220 214 219 220 225 222 223 199 208 250 208 210 246 251 246 253 243 236 223 212 229 172 245
286 273 282 271 270 264 270 300 294 252 252 257 256 239 240 245 83 73 261 220 226 219 219 220 229 220 226 215 205 198 217 230 228 257 257 251 220 222 245 198 232 243 235
301 298 307 305 276 262 234 249 268 234 200 170 145 179 185 164 146 122 216 238 231 235 224 224 230 228 211 207 205 209 220 212 220 243 250 260 251 239 211 226 239 243 263
321 333 348 340 320 299 282 241 245 219 214 194 184 199 216 222 199 210 197 231 244 240 233 231 226 227 218 197 210 202 204 220 203 200 233 121 355 46 67 234 199 205 232
335 348 340 341 332 346 353 332 302 272 239 217 198 189 202 228 190 203 211 225 222 232 229 224 230 229 185 197 211 208 208 213 216 238 231 241 213 226 192 221 267 248 212
333 7 311 349 314 333 22 296 297 273 266 245 189 107 91 28 111 202 228 242 245 229 234 231 219 207 237 195 198 198 203 226 228 239 225 222 223 220 207 209 216 257 278
301 300 314 342 330 339 350 8 19 77 44 33 59 65 38 54 34 115 217 231 72 294 237 160 157 160 193 220 187 148 110 27 234 213 221 239 244 241 247 247 222 232 250
275 294 316 316 315 321 308 32 107 92 98 96 98 103 104 191 129 107 61 187 163 352 351 104 107 99 127 118 47 145 172 206 203 247 246 247 258 351 335 286 263 236 261
292 290 286 289 306 297 302 21 42 67 112 136 146 146 131 91 40 40 77 78 89 95 89 68 87 94 80 109 97 118 149 171 212 236 243 247 132 189 151 258 254 350 285
297 291 275 260 225 274 62 26 14 69 26 327 39 112 106 81 57 6 25 50 75 76 103 99 119 127 150 183 189 188 203 211 222 243 244 256 193 223 218 210 265 239 242
293 296 347 311 233 253 160 134 60 54 37 36 23 42 65 72 86 51 53 65 73 44 184 145 146 170 131 174 171 193 215 212 223 232 253 247 245 247 247 238 223 234 239
263 277 273 253 268 210 218 263 158 94 56 48 55 52 51 93 66 4 15 354 269 174 238 152 87 83 128 158 211 85 183 175 309 247 243 247 259 254 252 257 257 261 278
267 196 268 259 269 275 208 212 252 171 180 164 129 35 88 89 318 312 335 310 199 201 61 79 97 141 113 54 40 27 290 240 231 322 325 295 307 302 281 265 277 279 278
251 230 249 272 1 350 290 248 227 221 145 140 141 187 170 226 251 268 268 266 105 104 112 116 127 149 153 150 145 136 145 107 40 132 153 241 271 277 281 303 329 319 312
228 141 235 284 218 232 234 244 210 168 196 201 193 160 160 174 204 214 200 228 127 126 107 116 128 127 138 134 154 151 149 133 122 120 128 132 360 350 330 330 293 303 288
284 158 210 267 257 235 250 286 127 282 60 63 96 101 65 226 105 334 242 154 144 123 146 140 154 133 137 165 150 136 126 124 70 95 142 89 357 73 254 209 272 291 320
288 280 210 224 80 239 297 285 271 224 145 191 150 134 140 241 181 182 191 199 150 177 186 241 176 175 166 127 168 206 177 152 148 232 210 256 192 167 221 230 155 255 166
255 266 265 254 44 96 220 248 273 312 332 344 284 151 188 211 236 225 102 47 34 124 180 216 283 195 173 158 220 238 292 112 95 10 326 325 83 306 46 330 323 241 166
270 237 257 240 198 268 264 163 184 7 324 294 211 249 278 298 273 163 158 171 196 231 210 196 226 288 48 189 229 220 217 83 14 330 338 280 294 193 305 295 262 293 216
267 240 263 268 255 205 228 259 282 252 205 225 234 223 211 279 288 300 158 190 260 200 189 151 221 0 286 239 274 122 109 92 49 354 294 287 291 266 243 205 239 246 237
325 215 275 280 282 274 276 242 261 268 275 287 220 199 217 259 279 209 299 194 182 202 281 190 215 213 231 236 238 121 134 130 140 157 308 296 287 272 268 207 268 287 261